TimeEST,TemperatureF,Dew PointF,Humidity,Sea Level PressureIn,VisibilityMPH,Wind Direction,Wind SpeedMPH,Gust SpeedMPH,PrecipitationIn,Events,Conditions,WindDirDegrees,DateUTC
12:51 AM,50.0,48.0,93,29.12,10.0,South,6.9,-,0.09,Rain,Light Rain,170,2013-01-31 05:51:00
1:51 AM,50.0,46.9,89,29.05,8.0,South,9.2,-,0.04,Rain,Light Rain,180,2013-01-31 06:51:00
2:51 AM,48.9,48.0,97,28.99,5.0,South,6.9,-,0.07,Rain,Rain,180,2013-01-31 07:51:00
3:51 AM,48.9,48.0,97,28.90,8.0,South,5.8,-,0.10,Rain,Light Rain,170,2013-01-31 08:51:00
4:51 AM,48.9,46.9,93,28.84,7.0,South,13.8,20.7,0.07,Rain,Light Rain,190,2013-01-31 09:51:00
5:26 AM,44.6,42.8,93,28.90,8.0,WSW,18.4,35.7,0.02,Rain,Light Rain,240,2013-01-31 10:26:00
5:43 AM,42.8,39.2,87,28.90,9.0,WSW,17.3,24.2,0.04,Rain,Light Rain,240,2013-01-31 10:43:00
5:51 AM,39.9,37.0,89,28.92,10.0,WSW,18.4,35.7,0.04,Rain,Light Rain,240,2013-01-31 10:51:00
6:03 AM,39.2,37.4,93,28.88,10.0,WSW,10.4,19.6,0.00,Rain,Light Rain,240,2013-01-31 11:03:00
6:51 AM,36.0,34.0,93,28.94,8.0,SW,17.3,25.3,0.03,Rain,Light Rain,230,2013-01-31 11:51:00
7:25 AM,33.8,30.2,87,28.97,2.5,SW,21.9,33.4,0.00,Snow,Light Snow,230,2013-01-31 12:25:00
7:34 AM,33.8,30.2,87,28.96,1.0,SW,15.0,28.8,0.00,Snow,Light Snow,230,2013-01-31 12:34:00
7:41 AM,33.8,30.2,87,28.97,1.2,WSW,13.8,24.2,0.00,Snow,Light Snow,240,2013-01-31 12:41:00
7:51 AM,33.1,30.9,92,28.98,1.0,WSW,18.4,29.9,0.00,Snow,Light Snow,240,2013-01-31 12:51:00
7:59 AM,32.0,30.2,93,28.97,0.5,WSW,13.8,34.5,0.00,Fog-Snow,Snow,240,2013-01-31 12:59:00
8:13 AM,32.0,30.2,93,28.98,1.8,SW,17.3,28.8,0.00,Snow,Light Snow,230,2013-01-31 13:13:00
8:20 AM,33.8,30.2,87,28.98,2.0,WSW,13.8,28.8,0.00,Snow,Light Snow,240,2013-01-31 13:20:00
8:25 AM,32.0,30.2,93,28.98,1.0,WSW,17.3,24.2,0.00,Snow,Light Snow,240,2013-01-31 13:25:00
8:42 AM,32.0,28.4,87,28.99,1.2,West,24.2,44.9,0.01,Snow,Light Snow,260,2013-01-31 13:42:00
8:44 AM,30.2,28.4,93,28.99,3.0,WSW,20.7,44.9,0.01,,Overcast,250,2013-01-31 13:44:00
8:51 AM,30.9,28.0,89,29.01,4.0,West,21.9,41.4,0.01,,Overcast,260,2013-01-31 13:51:00
9:00 AM,30.2,26.6,86,29.00,5.0,WSW,23.0,50.6,0.00,,Overcast,250,2013-01-31 14:00:00
9:51 AM,28.9,24.1,82,29.06,9.0,WSW,23.0,33.4,0.00,Snow,Light Snow,240,2013-01-31 14:51:00
10:22 AM,28.4,19.4,69,29.07,10.0,WSW,20.7,44.9,0.00,,Overcast,240,2013-01-31 15:22:00
10:51 AM,27.0,19.9,75,29.11,10.0,WSW,17.3,35.7,0.00,,Overcast,240,2013-01-31 15:51:00
11:21 AM,26.6,19.4,74,29.08,9.0,WSW,19.6,46.0,N/A,,Overcast,250,2013-01-31 16:21:00
11:48 AM,26.6,19.4,74,29.09,5.0,West,21.9,43.7,0.00,Snow,Light Snow,260,2013-01-31 16:48:00
11:51 AM,26.1,19.0,75,29.12,5.0,WSW,26.5,43.7,0.00,Snow,Light Snow,250,2013-01-31 16:51:00
12:06 PM,26.6,17.6,69,29.10,1.8,WSW,27.6,39.1,0.00,Snow,Light Snow,250,2013-01-31 17:06:00
12:14 PM,24.8,19.4,80,29.11,0.2,WSW,17.3,40.3,0.00,Snow,Heavy Snow,240,2013-01-31 17:14:00
12:26 PM,24.8,19.4,80,29.11,1.0,SW,23.0,39.1,0.00,Snow,Light Snow,230,2013-01-31 17:26:00
12:35 PM,26.6,19.4,74,29.11,2.0,WSW,19.6,39.1,0.00,Snow,Light Snow,250,2013-01-31 17:35:00
12:47 PM,24.8,19.4,80,29.12,0.8,West,12.7,33.4,0.00,Snow,Light Snow,270,2013-01-31 17:47:00
12:51 PM,24.1,21.0,88,29.15,0.2,WSW,16.1,26.5,0.00,Fog-Snow,Heavy Snow,250,2013-01-31 17:51:00
1:11 PM,24.8,21.2,86,29.13,0.2,West,12.7,20.7,0.00,Fog-Snow,Heavy Snow,260,2013-01-31 18:11:00
1:29 PM,24.8,19.4,80,29.13,0.5,West,17.3,33.4,0.00,Fog-Snow,Snow,260,2013-01-31 18:29:00
1:36 PM,23.0,19.4,86,29.13,0.2,West,27.6,44.9,0.00,Fog-Snow,Snow,260,2013-01-31 18:36:00
1:41 PM,23.0,17.6,80,29.13,0.5,WSW,20.7,44.9,0.00,Snow,Snow,250,2013-01-31 18:41:00
1:47 PM,24.8,17.6,74,29.14,1.2,WSW,20.7,39.1,0.00,Snow,Light Snow,250,2013-01-31 18:47:00
1:51 PM,24.1,17.1,75,29.17,2.5,WSW,16.1,39.1,0.00,,Overcast,240,2013-01-31 18:51:00
2:15 PM,24.8,15.8,69,29.14,1.2,WSW,23.0,42.6,0.00,Snow,Light Snow,240,2013-01-31 19:15:00
2:24 PM,24.8,15.8,69,29.15,1.8,WSW,23.0,42.6,0.00,,Overcast,250,2013-01-31 19:24:00
2:36 PM,24.8,14.0,64,29.16,2.5,WSW,21.9,39.1,0.00,,Overcast,250,2013-01-31 19:36:00
2:51 PM,24.1,14.0,65,29.20,2.0,WSW,19.6,43.7,0.00,,Haze,250,2013-01-31 19:51:00
3:10 PM,23.0,12.2,63,29.19,1.5,WSW,23.0,40.3,0.00,,Overcast,250,2013-01-31 20:10:00
3:18 PM,23.0,12.2,63,29.19,3.0,WSW,18.4,42.6,0.00,,Haze,240,2013-01-31 20:18:00
3:33 PM,23.0,10.4,59,29.21,2.5,WSW,26.5,44.9,0.00,,Haze,240,2013-01-31 20:33:00
3:40 PM,23.0,10.4,59,29.21,5.0,WSW,15.0,44.9,0.00,,Haze,250,2013-01-31 20:40:00
3:51 PM,23.0,10.9,60,29.25,9.0,WSW,18.4,39.1,0.00,,Overcast,250,2013-01-31 20:51:00
4:16 PM,21.2,12.2,68,29.23,1.8,WSW,20.7,34.5,0.00,Snow,Light Snow,250,2013-01-31 21:16:00
4:26 PM,21.2,10.4,63,29.24,3.0,WSW,19.6,41.4,0.00,Snow,Light Snow,250,2013-01-31 21:26:00
4:51 PM,21.9,10.0,60,29.28,8.0,WSW,17.3,28.8,0.00,Snow,Light Snow,250,2013-01-31 21:51:00
5:51 PM,19.9,8.1,60,29.34,10.0,WSW,19.6,32.2,0.00,,Overcast,240,2013-01-31 22:51:00
6:51 PM,19.0,7.0,59,29.39,10.0,West,15.0,36.8,N/A,,Overcast,260,2013-01-31 23:51:00
7:51 PM,18.0,3.9,54,29.42,10.0,West,17.3,41.4,N/A,,Overcast,260,2013-02-01 00:51:00
8:51 PM,17.1,3.0,54,29.45,10.0,West,16.1,34.5,N/A,,Overcast,260,2013-02-01 01:51:00
9:51 PM,16.0,5.0,62,29.47,8.0,West,10.4,26.5,N/A,,Overcast,260,2013-02-01 02:51:00
10:51 PM,14.0,6.1,71,29.49,7.0,WSW,10.4,16.1,N/A,,Overcast,250,2013-02-01 03:51:00
11:51 PM,14.0,7.0,74,29.51,5.0,WSW,12.7,20.7,N/A,,Haze,240,2013-02-01 04:51:00